CYWG

Winnipeg International

Airport
ICAO code
CYWG
Summary
ICAO Region
NAM
ICAO Territory
Location

Winnipeg, Manitoba,

Coordinates
49° 54' 36" N , 97° 14' 24" W
KCC
Metar
CYWG 181900Z 30021G28KT 9SM -SHSN BKN016TCU OVC030 02/M00 A2981

Description

International airport serving Winnipeg, Manitoba.

Climatology

Humid Continental climate (Köppen climate classification Dfb) - Variable weather patterns and a large seasonal temperature variance. Summers are often warm and humid with frequent thunderstorms and winters can be very cold with frequent snowfall and persistent snow cover.

Runways

Designator Length Width Surface Rops
7/25 1372 61 ASP Yes/Yes
13/31 2652 61 ASP Yes/Yes
18/36 3353 61 ASP Yes/Yes

Airport map

Aerial View

SKYbrary Partners:

Safety knowledge contributed by: